Home   Weather   Choloma   Past weeks

Flag for Honduras Past Weather in Choloma, Honduras — Yesterday and Last 2 Weeks

Now
81 °F

Scattered showers. Partly sunny.


Feels Like: 89 °F
Forecast: 74 / 82 °F
Wind: 6 mph from North

Location: La Mesa San Pedro Sula

Current Time: Jul 25, 2017 at 8:37:46 am

Latest Report: Jul 25, 2017 at 8:00 am


Visibility: 4 mi

Pressure: 29.98 "Hg

Humidity: 100%

Dew Point: 81 °F

Location of CholomaLocation

Past Weather in Choloma — Graph

°F

Choloma Temperature Yesterday

Maximum temperature yesterday: 91 °F (at 2:00 pm)
Minimum temperature yesterday: 77 °F (at 2:00 am)
Average temperature yesterday: 83 °F

High & Low Weather Summary for the Past Weeks

 TemperatureHumidityPressure
High91 °F (Jul 10, 1:00 pm)100% (Jul 10, 7:00 am)30.07 "Hg (Jul 10, 7:00 am)
Low70 °F (Jul 14, 5:00 am)67% (Jul 10, 2:00 pm)29.83 "Hg (Jul 17, 3:00 pm)
Average81 °F91%29.95 "Hg
* Reported Jul 10 7:00 am — Jul 25 7:00 am, Choloma. Weather by CustomWeather, © 2017

Note: Actual official high and low records may vary slightly from our data, if they occured in-between our weather recording intervals... More about our weather records

Advertising

Choloma Weather History for the Previous 24 Hours

Scroll right to see more
 ConditionsComfort  
Time TempWeatherWind HumidityBarometerVisibility
7:00 am
Tue, Jul 25
79 °FScattered showers. Partly sunny.No wind100%29.98 "Hg2 mi
6:00 am77 °FPartly sunny.No wind100%29.95 "HgN/A
5:00 am79 °FPassing clouds.No wind100%29.95 "HgN/A
4:00 am79 °FPassing clouds.2 mph100%29.92 "HgN/A
2:00 am81 °FWarm.No wind100%29.92 "HgN/A
1:00 am81 °FPassing clouds.No wind100%29.95 "HgN/A
12:00 am81 °FPassing clouds.5 mph100%29.95 "HgN/A
11:00 pm
Mon, Jul 24
81 °FPassing clouds.7 mph100%29.95 "HgN/A
10:00 pm82 °FPassing clouds.5 mph94%29.95 "HgN/A
9:00 pm82 °FPassing clouds.7 mph100%29.92 "HgN/A
8:00 pm82 °FPartly cloudy.9 mph100%29.92 "HgN/A
7:00 pm82 °FPartly cloudy.7 mph100%29.89 "HgN/A
6:00 pm86 °FBroken clouds.9 mph84%29.86 "HgN/A
5:00 pm88 °FBroken clouds.12 mph79%29.86 "HgN/A
4:00 pm90 °FBroken clouds.14 mph79%29.86 "HgN/A
3:00 pm90 °FBroken clouds.14 mph75%29.86 "HgN/A
2:00 pm91 °FBroken clouds.12 mph75%29.86 "HgN/A
12:00 pm90 °FPartly sunny.5 mph84%29.92 "HgN/A
11:00 am88 °FPartly sunny.5 mph84%29.92 "HgN/A
10:00 am86 °FPartly sunny.5 mph84%29.95 "HgN/A
9:00 am86 °FPartly sunny.2 mph89%29.95 "HgN/A
8:00 am81 °FPartly sunny.2 mph100%29.95 "HgN/A
Weather by CustomWeather, © 2017

See weather overviewHow to use our weather pages